Weather in Sapozhok

Russia / Ryazan Oblast     53°56′36″N   40°40′56″E
temp.,
°C
wind,
m/s
gust,
m/s
humid.,
%
clouds,
%
prec.,
mm/h
press.,
hPa
HPBL,
m
25 february, thu
thu2500:00−16s5995100 0.3 1033365
03:00−15ssw61194100 0.6 1030385
06:00−13ssw61195100 0.9 1026381
09:00−10ssw71295100 2.3 1022395
12:00−4sw81494100 2.3 1017524
15:00+2w613100100 3.7 1014377
18:00+2wnw51399100 0.0 1014353
21:00+1wnw51099100 0.1 1014283
26 february, fri
fri2600:00+1wnw4998100 0.0 1014304
03:00+1w3799100 0.0 1015180
06:00+1wsw51099100 0.2 1013275
09:00+1w51199100 0.9 1012336
12:00+2wsw512100100 0.2 1010288
15:00+2wsw615100100 0.4 1007386
18:00+2wsw716100100 0.3 1005472
21:00+2w6159899 0.4 1005564
27 february, sat
sat2700:00+2w61492100 0.1 1004635
03:00+1w71490100 0.1 1004752
06:000w7139486 0.1 1003701
09:00+1w7129393 0.1 1003611
12:00+1w71397100 0.0 1002697
15:00+1wnw7139799 0.1 1002783
18:00−3nnw6129599 0.9 1004594
21:00−7nnw41191100 1.0 1007507
28 february, sun
sun2800:00−9nnw499494 0.0 1009286
03:00−10n4109383 0.0 1011309
06:00−11n3109589 0.0 1013302
09:00−10n589278 0.0 1014427
12:00−8nnw479185 0.0 1016506
15:00−6nnw589093 0.1 1017645
18:00−7nnw3994100 0.1 1018407
21:00−8n389498 0.1 1021190
1 march, mon
mon100:00−10nnw369673 0.0 1022136
03:00−11nnw369679 0.1 1024146
06:00−11nnw349519 0.0 102586
09:00−9nnw369653 0.1 1027242
12:00−6nw359299 0.0 1027420
15:00−4wnw358998 0.1 1027615
18:00−4w3891100 0.1 1026287
21:00−7wsw499494 0.1 1026188